GSAT-31 (44035 NORAD) Tracking and Keplerian Element Data

This shows tracking and keplerian element data for the satellite.

Feedback or suggestion? Click here.




ElementValue
Catalog44035
NameGSAT-31
Epoch Orbit19
Epoch Day53.81509274
Epoch Year2019
RAAN282.9667
Inclination0.1218
Eccentricity0.0004077
Argument of Perigee27.7942
Mean Anonmoly182.9646
Mean Motion1.00272786
Decay Rate1.02E-06
L11 44035U 19007B 19053.81509274 .00000102 00000-0 00000-0 0 9990
L22 44035 0.1218 282.9667 0004077 27.7942 182.9646 1.00272786 198

Live tracking and technical data element details for GSAT-31 (NORAD 44035). GSAT-31 can be tracked NOW for your location showing map with azimuth and elevation plus other details from your city location.

Track the satellite on the map from your city or location and see movement details for azimuth, elevation, latitude, longitude, range, height, and movement on the map or in text.







IsCatalogInMostPopularTable: catalog: 44035, numindb: 6
Update: records affected: 1



GetName: 44035 GSAT-31

Hit Count: updated at: Sat, 23 Feb 2019 16:48:33 GMT